Weather History for KACV - April, 2013

Change the Weather History Date:

Monday, April 29, 2013

  Actual Average Record
Temperature  
Mean Temperature 51 °F -  
Max Temperature 61 °F 56 °F 71 °F (2004)
Min Temperature 42 °F 41 °F 34 °F (2007)
Degree Days  
Heating Degree Days 14    
Growing Degree Days 1 (Base 50)    
Moisture  
Dew Point 44 °F    
Average Humidity 89    
Maximum Humidity 100    
Minimum Humidity 62    
Precipitation  
Precipitation 0.00 in - - ()
Sea Level Pressure  
Sea Level Pressure 30.13 in    
Wind  
Wind Speed 4 mph (North)    
Max Wind Speed 23 mph    
Max Gust Speed 30 mph    
Visibility 7 miles    
Events Fog    
Averages and records for this station are not official NWS values.
T = Trace of Precipitation, MM = Missing Value Source: NWS Daily Summary

Daily Weather History Graph

Daily Weather History Graph

Search for Another Location

Airport or City:

Trip Planner

Search our weather history database for the weather conditions in past years. The results will help you decide how hot, cold, wet, or windy it might be!

Date:

Astronomy

Apr. 29, 2013 Rise Set
Actual Time 6:16 AM PDT 8:11 PM PDT
Civil Twilight 5:46 AM PDT 8:41 PM PDT
Nautical Twilight 5:10 AM PDT 9:17 PM PDT
Astronomical Twilight 4:31 AM PDT 9:56 PM PDT
Moon No Moon Rise 9:43 AM PDT
Length of Visible Light 14h 54m
Length of Day
13h 54m
Waning Gibbous, 79% of the Moon is Illuminated
Apr 29
Waning Gibbous
May 2
Last Quarter
May 9
New
May 17
First Quarter
May 24
Full

Hourly Weather History & Observations

Time (PDT) Temp. Windchill Dew Point Humidity Pressure Visibility Wind Dir Wind Speed Gust Speed Precip Events Conditions
12:53 AM 46.0 °F 43.9 °F 45.0 °F 96% 30.17 in 10.0 mi ESE 4.6 mph - N/A   Clear
1:53 AM 44.1 °F - 43.0 °F 96% 30.17 in 10.0 mi Calm Calm - N/A   Clear
2:53 AM 43.0 °F - 42.1 °F 97% 30.15 in 10.0 mi Calm Calm - N/A   Clear
3:53 AM 42.1 °F 40.2 °F 41.0 °F 96% 30.15 in 10.0 mi SSE 3.5 mph - N/A   Mostly Cloudy
4:11 AM 44.6 °F 43.1 °F 44.6 °F 100% 30.13 in 1.8 mi East 3.5 mph - N/A   Overcast
4:41 AM 42.8 °F - 42.8 °F 100% 30.13 in 2.5 mi Calm Calm - N/A   Overcast
4:48 AM 44.6 °F - 44.6 °F 100% 30.12 in 4.0 mi Calm Calm - N/A   Overcast
4:53 AM 43.0 °F - 43.0 °F 100% 30.15 in 2.5 mi Calm Calm - N/A   Mostly Cloudy
5:01 AM 42.8 °F - 42.8 °F 100% 30.12 in 0.8 mi Calm Calm - N/A   Mist
5:19 AM 42.8 °F - 42.8 °F 100% 30.12 in 1.5 mi Calm Calm - N/A   Overcast
5:35 AM 42.8 °F 41.1 °F 42.8 °F 100% 30.12 in 2.0 mi East 3.5 mph - N/A   Overcast
5:53 AM 43.0 °F - 43.0 °F 100% 30.14 in 4.0 mi Calm Calm - N/A   Overcast
6:06 AM 42.8 °F - 42.8 °F 100% 30.12 in 10.0 mi Calm Calm - N/A   Scattered Clouds
6:19 AM 42.8 °F - 42.8 °F 100% 30.12 in 10.0 mi Calm Calm - N/A   Mostly Cloudy
6:42 AM 42.8 °F - 42.8 °F 100% 30.12 in 2.0 mi Calm Calm - N/A   Overcast
6:44 AM 42.8 °F - 42.8 °F 100% 30.12 in 0.8 mi Calm Calm - N/A   Mist
6:50 AM 42.8 °F - 42.8 °F 100% 30.12 in 0.2 mi Calm Calm - N/A Fog Fog
6:53 AM 42.1 °F - 42.1 °F 100% 30.14 in 0.2 mi Calm Calm - N/A Fog Fog
7:02 AM 42.8 °F - 42.8 °F 100% 30.12 in 1.2 mi Calm Calm - N/A   Overcast
7:05 AM 42.8 °F - 42.8 °F 100% 30.12 in 4.0 mi Calm Calm - N/A   Overcast
7:28 AM 44.6 °F 43.1 °F 44.6 °F 100% 30.12 in 1.8 mi East 3.5 mph - N/A   Overcast
7:53 AM 46.0 °F - 46.0 °F 100% 30.15 in 2.5 mi Calm Calm - N/A   Overcast
8:00 AM 46.4 °F - 46.4 °F 100% 30.13 in 9.0 mi Calm Calm - N/A   Mostly Cloudy
8:53 AM 48.0 °F - 48.0 °F 100% 30.16 in 9.0 mi Calm Calm - N/A   Scattered Clouds
9:53 AM 54.0 °F - 48.9 °F 83% 30.14 in 10.0 mi NW 3.5 mph - N/A   Clear
10:53 AM 57.0 °F - 48.9 °F 74% 30.14 in 10.0 mi NNW 17.3 mph - N/A   Clear
11:53 AM 59.0 °F - 48.9 °F 69% 30.14 in 10.0 mi NNW 18.4 mph 24.2 mph N/A   Clear
12:53 PM 59.0 °F - 48.9 °F 69% 30.14 in 10.0 mi NNW 18.4 mph 26.5 mph N/A   Clear
1:53 PM 60.1 °F - 48.0 °F 64% 30.13 in 10.0 mi NNW 18.4 mph 24.2 mph N/A   Clear
2:53 PM 59.0 °F - 46.9 °F 64% 30.12 in 10.0 mi North 17.3 mph - N/A   Clear
3:53 PM 57.9 °F - 45.0 °F 62% 30.12 in 10.0 mi North 23.0 mph 29.9 mph N/A   Clear
4:53 PM 55.9 °F - 43.0 °F 62% 30.11 in 10.0 mi NNW 20.7 mph 27.6 mph N/A   Clear
5:53 PM 54.0 °F - 43.0 °F 66% 30.11 in 10.0 mi NNW 13.8 mph 20.7 mph N/A   Clear
6:53 PM 51.1 °F - 42.1 °F 71% 30.10 in 10.0 mi NNW 15.0 mph - N/A   Clear
7:53 PM 48.9 °F - 39.9 °F 71% 30.09 in 10.0 mi NNW 11.5 mph - N/A   Clear
8:53 PM 46.9 °F - 39.9 °F 77% 30.09 in 10.0 mi Calm Calm - N/A   Clear
9:53 PM 46.0 °F 41.0 °F 42.1 °F 86% 30.10 in 10.0 mi North 10.4 mph - N/A   Clear
10:53 PM 44.1 °F - 41.0 °F 89% 30.09 in 9.0 mi Calm Calm - N/A   Clear
11:53 PM 42.1 °F - 39.9 °F 92% 30.09 in 10.0 mi Calm Calm - N/A   Clear